Regional Weather Roundup
Issued by NWS Little Rock, AR

Home | Current Version | Previous Version | Text Only | Print | Product List | Glossary On
Versions: 1 2 3 4 5 6 7 8 9 10 11 12 13 14 15 16 17 18 19 20 21 22 23 24 25 26 27 28 29 30 31
000
ASUS44 KLZK 251105
RWRLZK

WEATHER ROUNDUP FOR ARKANSAS
NATIONAL WEATHER SERVICE LITTLE ROCK AR
500 AM CST SAT NOV 25 2017

NOTE: "FAIR" INDICATES FEW OR NO CLOUDS BELOW 12,000 FEET WITH NO
SIGNIFICANT WEATHER AND/OR OBSTRUCTIONS TO VISIBILITY.

ARZ001-003-010-029-251200-
NORTHWEST ARKANSAS

CITY           SKY/WX    TMP DP  RH WIND       PRES   REMARKS
FAYETTEVILLE   CLOUDY    49  41  74 CALM      29.96R
FORT SMITH     CLOUDY    50  43  77 CALM      29.95R
HARRISON       MOCLDY    57  40  52 NW8       29.98R
BENTONVILLE    CLOUDY    56  39  53 N14G20    30.01R
ROGERS         CLOUDY    56  40  55 N12G20    30.00R
SILOAM SPGS    CLOUDY    57  40  52 NE12      29.98R
HIGHFILL       CLOUDY    56  40  55 N15       29.99R
$$

ARZ004-005-016-251200-
NORTH CENTRAL ARKANSAS

CITY           SKY/WX    TMP DP  RH WIND       PRES   REMARKS
BATESVILLE     CLOUDY    58  37  45 W6        29.92R
FLIPPIN        CLOUDY    60  41  49 NW9       29.95R
MTN HOME       CLOUDY    59  41  51 NE7       29.92R
$$

ARZ040-041-251200-
WEST CENTRAL ARKANSAS

CITY           SKY/WX    TMP DP  RH WIND       PRES   REMARKS
MENA           MOCLDY    59  41  51 W3        29.96R
MOUNT IDA      CLOUDY    49  40  71 CALM      29.93R
$$

ARZ009-017-025-026-028-251200-
NORTHEAST ARKANSAS

CITY           SKY/WX    TMP DP  RH WIND       PRES   REMARKS
CORNING        FAIR      52  41  66 W6        29.91R
JONESBORO      CLOUDY    53  40  61 SW7       29.91R
NEWPORT        CLOUDY    52  39  61 SW8       29.92R
WALNUT RIDGE     N/A    N/A N/A N/A MISG        N/A
BLYTHEVILLE    CLOUDY    52  38  58 SW7       29.90R
$$

ARZ022-023-033-042-044-251200-
CENTRAL ARKANSAS

CITY           SKY/WX    TMP DP  RH WIND       PRES   REMARKS
LITTLE ROCK    MOCLDY    49  40  71 SW5       29.96R
N LITTLE ROCK    N/A     52  40  64 CALM      29.97R
JACKSONVILLE   CLOUDY    44  38  80 CALM      29.95R
SEARCY         CLOUDY    44  41  89 W3        29.95R
HOT SPRINGS    MOCLDY    52  40  63 NW3       29.95R
RUSSELLVILLE   CLOUDY    47  41  80 CALM      29.95R
CLINTON        FAIR      45  41  87 CALM      29.95R
$$

ARZ036-251200-
EAST ARKANSAS

CITY           SKY/WX    TMP DP  RH WIND       PRES   REMARKS
WEST MEMPHIS   CLOUDY    50  37  61 SW7       29.92R
$$

ARZ050-053-066-070-073-251200-
SOUTHWEST ARKANSAS

CITY           SKY/WX    TMP DP  RH WIND       PRES   REMARKS
ARKADELPHIA    FAIR      42  39  89 CALM      29.97R
CAMDEN         PTCLDY    41  37  87 CALM      29.96R FOG
TEXARKANA      MOCLDY    50  43  77 CALM      29.96R
EL DORADO      CLEAR     42  40  92 CALM      29.96R
DE QUEEN       MOCLDY    42  41  96 CALM      29.95R
$$

ARZ056-057-069-251200-
SOUTHEAST ARKANSAS

CITY           SKY/WX    TMP DP  RH WIND       PRES   REMARKS
PINE BLUFF     MOCLDY    45  37  73 CALM      29.96R
STUTTGART      CLOUDY    46  39  76 SW8       29.95R
MONTICELLO     PTCLDY    50  37  61 SW3       29.96R

$$






USA.gov is the U.S. government's official web portal to all federal, state and local government web resources and services.